N6GIW Weather Reports


Display with metric or nautical units.
time (UTC)temp
F
wind
direction
speed
MPH
gust
MPH
rain 1hr
in
rain 24hr
in
rain mn
in
humidity
%
barometer
mb
20260901085503 66 192 0.0 0.0 0.00 0.00 0.00 35 1022.3
20260901085004 66 192 0.0 2.0 0.00 0.00 0.00 36 1022.3
20260901084503 66 241 0.0 0.0 0.00 0.00 0.00 34 1022.3
20260901084003 67 242 0.0 0.0 0.00 0.00 0.00 34 1022.2
20260901083503 67 242 0.0 0.0 0.00 0.00 0.00 34 1022.1
20260901083003 67 242 0.0 0.0 0.00 0.00 0.00 35 1022.2
20260901082503 66 206 0.0 1.0 0.00 0.00 0.00 35 1022.1
20260901081504 66 175 1.0 3.0 0.00 0.00 0.00 34 1022.2
20260901081004 67 186 0.0 1.0 0.00 0.00 0.00 34 1022.2
20260901080503 67 187 1.0 2.0 0.00 0.00 0.00 34 1022.2
20260901080004 67 225 0.0 0.0 0.00 0.00 0.00 34 1022.3
20260901075503 69 225 0.0 0.0 0.00 0.00 0.00 33 1022.4
20260901075003 70 235 0.0 0.0 0.00 0.00 0.00 32 1022.4
20260901074504 71 263 0.0 0.0 0.00 0.00 0.00 32 1022.4
20260901074004 71 263 0.0 0.0 0.00 0.00 0.00 31 1022.4
20260901073504 72 263 0.0 2.0 0.00 0.00 0.00 31 1022.2
20260901073003 72 263 0.0 3.0 0.00 0.00 0.00 32 1022.3
20260901072504 72 264 0.0 3.0 0.00 0.00 0.00 32 1022.3
20260901072003 72 264 1.0 2.0 0.00 0.00 0.00 32 1022.4
20260901071504 72 254 0.0 1.0 0.00 0.00 0.00 32 1022.4
20260901071005 72 283 0.0 2.0 0.00 0.00 0.00 32 1022.4
20260901070003 73 274 1.0 3.0 0.00 0.00 0.00 32 1022.3
20260901065503 73 243 1.0 3.0 0.00 0.00 0.00 32 1022.3
20260901065003 73 273 0.0 3.0 0.00 0.00 0.00 32 1022.4
20260901064503 74 261 2.0 6.0 0.00 0.00 0.00 32 1022.2
20260901063004 72 271 0.0 0.0 0.00 0.00 0.00 34 1022.2
20260901062504 73 271 0.0 0.0 0.00 0.00 0.00 34 1022.2
20260901062003 73 271 0.0 0.0 0.00 0.00 0.00 34 1022.1
20260901061503 74 266 0.0 0.0 0.00 0.00 0.00 32 1022.0
20260901061003 75 255 0.0 0.0 0.00 0.00 0.00 32 1021.9
20260901060003 75 211 0.0 0.0 0.00 0.00 0.00 32 1021.9
20260901055004 75 216 0.0 0.0 0.00 0.00 0.00 32 1022.0
20260901054504 76 220 0.0 0.0 0.00 0.00 0.00 32 1022.0
20260901054003 76 234 0.0 0.0 0.00 0.00 0.00 32 1022.0
20260901053503 76 228 3.0 12.0 0.00 0.00 0.00 32 1021.9
20260901053003 76 220 6.0 13.0 0.00 0.00 0.00 31 1022.1
20260901052004 76 245 6.0 12.0 0.00 0.00 0.00 32 1022.1
20260901051503 75 251 5.0 8.0 0.00 0.00 0.00 33 1022.1
20260901050503 76 213 6.0 10.0 0.00 0.00 0.00 34 1022.1
20260901050004 76 199 9.0 14.0 0.00 0.00 0.00 34 1022.1
20260901045503 76 198 10.0 14.0 0.00 0.00 0.00 34 1022.1
20260901045003 76 196 10.0 18.0 0.00 0.00 0.00 34 1022.0
20260901044505 77 197 10.0 15.0 0.00 0.00 0.00 35 1022.0
20260901044004 77 200 12.0 16.0 0.00 0.00 0.00 35 1021.9
20260901043503 76 199 10.0 18.0 0.00 0.00 0.00 35 1022.0
20260901043003 77 195 12.0 18.0 0.00 0.00 0.00 36 1022.0
20260901042004 77 171 13.0 20.0 0.00 0.00 0.00 36 1021.7
20260901041504 76 185 12.0 18.0 0.00 0.00 0.00 37 1021.6
20260901041005 76 192 12.0 16.0 0.00 0.00 0.00 38 1021.6
20260901040504 76 196 10.0 15.0 0.00 0.00 0.00 39 1021.5
20260901040003 76 201 12.0 17.0 0.00 0.00 0.00 40 1021.5
20260901035503 76 199 11.0 17.0 0.00 0.00 0.00 41 1021.5
20260901035004 76 196 12.0 20.0 0.00 0.00 0.00 41 1021.5
20260901034504 76 192 10.0 18.0 0.00 0.00 0.00 41 1021.5
20260901034004 76 188 12.0 17.0 0.00 0.00 0.00 42 1021.3
20260901033504 77 172 12.0 15.0 0.00 0.00 0.00 41 1021.1
20260901033003 77 194 12.0 16.0 0.00 0.00 0.00 39 1021.0
20260901032503 78 209 12.0 16.0 0.00 0.00 0.00 39 1020.8
20260901031504 78 206 13.0 18.0 0.00 0.00 0.00 39 1020.7
20260901031004 78 203 10.0 18.0 0.00 0.00 0.00 39 1020.7
20260901030504 78 205 12.0 18.0 0.00 0.00 0.00 40 1020.8
20260901030005 78 197 11.0 18.0 0.00 0.00 0.00 40 1020.7
20260901025503 78 205 12.0 20.0 0.00 0.00 0.00 40 1020.7
20260901025005 78 204 10.0 15.0 0.00 0.00 0.00 40 1020.7
20260901024504 79 200 10.0 17.0 0.00 0.00 0.00 40 1020.6
20260901024004 79 191 10.0 15.0 0.00 0.00 0.00 39 1020.6
20260901023503 79 196 11.0 18.0 0.00 0.00 0.00 39 1020.5
20260901023003 80 189 11.0 15.0 0.00 0.00 0.00 39 1020.5
20260901022503 80 199 10.0 20.0 0.00 0.00 0.00 39 1020.5
20260901022003 80 180 12.0 20.0 0.00 0.00 0.00 38 1020.4
20260901021504 81 174 10.0 14.0 0.00 0.00 0.00 37 1020.3
20260901021003 82 197 12.0 16.0 0.00 0.00 0.00 36 1020.1
20260901020504 83 199 9.0 15.0 0.00 0.00 0.00 34 1020.2
20260901020004 83 209 11.0 15.0 0.00 0.00 0.00 33 1020.3
20260901015504 84 197 9.0 17.0 0.00 0.00 0.00 32 1020.3
20260901015004 84 208 10.0 14.0 0.00 0.00 0.00 30 1020.3
20260901014004 86 226 12.0 18.0 0.00 0.00 0.00 25 1020.1
20260901013503 86 224 9.0 15.0 0.00 0.00 0.00 24 1020.1
20260901013004 87 214 9.0 15.0 0.00 0.00 0.00 24 1020.1
20260901012504 87 210 10.0 16.0 0.00 0.00 0.00 24 1020.2
20260901012003 87 232 12.0 20.0 0.00 0.00 0.00 25 1020.0
20260901011503 87 222 11.0 20.0 0.00 0.00 0.00 24 1020.2
20260901011003 87 219 6.0 16.0 0.00 0.00 0.00 25 1020.2
20260901010003 87 205 12.0 21.0 0.00 0.00 0.00 27 1020.2
20260901005503 87 208 12.0 20.0 0.00 0.00 0.00 27 1020.3
20260901005004 88 207 14.0 22.0 0.00 0.00 0.00 26 1020.4
20260901004504 88 214 10.0 20.0 0.00 0.00 0.00 26 1020.1
20260901003504 88 218 11.0 18.0 0.00 0.00 0.00 25 1020.3
20260901003003 88 211 13.0 23.0 0.00 0.00 0.00 24 1020.3
20260901002004 88 198 16.0 25.0 0.00 0.00 0.00 25 1020.3
20260901001504 89 195 15.0 22.0 0.00 0.00 0.00 24 1020.3
20260901001003 89 205 14.0 26.0 0.00 0.00 0.00 23 1020.1
20260901000004 89 206 16.0 23.0 0.00 0.00 0.00 23 1020.3
20260831235503 89 202 16.0 23.0 0.00 0.00 0.00 23 1020.3
20260831235004 90 211 15.0 22.0 0.00 0.00 0.00 23 1020.3
20260831234505 90 198 13.0 20.0 0.00 0.00 0.00 21 1020.4
20260831234003 90 212 16.0 22.0 0.00 0.00 0.00 21 1020.2
20260831233503 90 203 14.0 23.0 0.00 0.00 0.00 22 1020.2
20260831233004 90 200 16.0 29.0 0.00 0.00 0.00 21 1020.2
20260831232504 90 182 16.0 23.0 0.00 0.00 0.00 21 1020.3
20260831232004 90 197 15.0 24.0 0.00 0.00 0.00 21 1020.3
20260831231504 91 199 13.0 20.0 0.00 0.00 0.00 21 1020.4
20260831231004 91 202 13.0 20.0 0.00 0.00 0.00 20 1020.5
20260831230504 91 216 15.0 26.0 0.00 0.00 0.00 21 1020.4
20260831230004 90 182 16.0 26.0 0.00 0.00 0.00 21 1020.7
20260831225504 90 194 15.0 25.0 0.00 0.00 0.00 21 1020.6
20260831224504 91 206 16.0 29.0 0.00 0.00 0.00 21 1020.5
20260831224003 91 196 14.0 21.0 0.00 0.00 0.00 21 1020.7
20260831223503 91 192 16.0 23.0 0.00 0.00 0.00 20 1020.8
20260831223004 91 215 13.0 24.0 0.00 0.00 0.00 20 1020.7
20260831222003 92 214 13.0 21.0 0.00 0.00 0.00 19 1020.9
20260831221504 91 217 10.0 20.0 0.00 0.00 0.00 20 1020.9
20260831221004 90 191 17.0 26.0 0.00 0.00 0.00 21 1021.0
20260831220504 91 198 14.0 21.0 0.00 0.00 0.00 21 1020.8
20260831220004 92 202 14.0 21.0 0.00 0.00 0.00 21 1021.0
20260831214504 90 204 16.0 24.0 0.00 0.00 0.00 23 1021.2
20260831214004 90 197 14.0 24.0 0.00 0.00 0.00 23 1021.2
20260831213503 90 202 16.0 25.0 0.00 0.00 0.00 23 1021.1
20260831213003 91 207 16.0 23.0 0.00 0.00 0.00 23 1021.3
20260831212503 91 220 16.0 21.0 0.00 0.00 0.00 23 1021.4
20260831212004 90 202 12.0 23.0 0.00 0.00 0.00 24 1021.6
20260831211503 90 196 15.0 30.0 0.00 0.00 0.00 25 1021.6
20260831211003 90 195 15.0 24.0 0.00 0.00 0.00 25 1021.7
20260831210504 90 195 13.0 24.0 0.00 0.00 0.00 25 1021.8
20260831210003 90 204 16.0 24.0 0.00 0.00 0.00 25 1021.8
20260831205503 90 195 14.0 21.0 0.00 0.00 0.00 25 1021.9
20260831205004 90 195 16.0 23.0 0.00 0.00 0.00 25 1021.9
20260831204003 90 192 17.0 26.0 0.00 0.00 0.00 25 1021.8
20260831203503 90 188 14.0 25.0 0.00 0.00 0.00 25 1021.8
20260831202504 90 193 13.0 22.0 0.00 0.00 0.00 26 1022.1
20260831202004 90 166 14.0 22.0 0.00 0.00 0.00 26 1022.1
20260831201503 90 186 13.0 23.0 0.00 0.00 0.00 26 1022.1
20260831200503 90 169 14.0 24.0 0.00 0.00 0.00 25 1022.3
20260831200004 90 165 13.0 22.0 0.00 0.00 0.00 24 1022.3
20260831195503 90 166 13.0 24.0 0.00 0.00 0.00 24 1022.1
20260831194504 90 166 14.0 26.0 0.00 0.00 0.00 23 1022.3
20260831194003 90 152 14.0 20.0 0.00 0.00 0.00 25 1022.3
20260831193503 89 165 15.0 22.0 0.00 0.00 0.00 25 1022.4
20260831193003 89 185 13.0 23.0 0.00 0.00 0.00 26 1022.5
20260831192504 89 188 13.0 23.0 0.00 0.00 0.00 25 1022.5
20260831191503 89 187 13.0 24.0 0.00 0.00 0.00 25 1022.7
20260831191004 89 189 11.0 20.0 0.00 0.00 0.00 25 1022.7
20260831190503 89 194 11.0 20.0 0.00 0.00 0.00 26 1022.7
20260831190005 88 216 12.0 20.0 0.00 0.00 0.00 27 1022.8
20260831185503 88 205 12.0 20.0 0.00 0.00 0.00 29 1023.0
20260831185004 88 215 10.0 18.0 0.00 0.00 0.00 28 1022.9
20260831184503 88 189 12.0 17.0 0.00 0.00 0.00 28 1022.9
20260831184004 88 201 10.0 17.0 0.00 0.00 0.00 29 1023.1
20260831183503 88 199 9.0 13.0 0.00 0.00 0.00 30 1023.2
20260831183004 88 188 11.0 17.0 0.00 0.00 0.00 31 1023.1
20260831182003 87 197 10.0 15.0 0.00 0.00 0.00 31 1023.2
20260831181503 87 226 9.0 13.0 0.00 0.00 0.00 31 1023.2
20260831181005 88 213 9.0 14.0 0.00 0.00 0.00 30 1023.0
20260831180004 88 174 7.0 12.0 0.00 0.00 0.00 28 1023.1
20260831175503 88 149 7.0 13.0 0.00 0.00 0.00 23 1023.1
20260831174003 88 90 1.0 8.0 0.00 0.00 0.00 24 1022.9
20260831173504 87 87 1.0 6.0 0.00 0.00 0.00 24 1023.1
20260831173004 87 110 3.0 7.0 0.00 0.00 0.00 24 1023.0
20260831172504 86 64 1.0 7.0 0.00 0.00 0.00 24 1023.0
20260831171503 87 79 2.0 6.0 0.00 0.00 0.00 24 1023.0
20260831171029 86 123 2.0 6.0 0.00 0.00 0.00 24 1023.0
20260831170518 86 87 1.0 7.0 0.00 0.00 0.00 25 1023.0
20260831170004 85 100 2.0 7.0 0.00 0.00 0.00 25 1022.9
20260831165504 85 142 1.0 7.0 0.00 0.00 0.00 25 1022.9
20260831165005 85 158 2.0 6.0 0.00 0.00 0.00 25 1023.0
20260831164504 85 147 3.0 5.0 0.00 0.00 0.00 25 1023.0
20260831164003 85 131 2.0 7.0 0.00 0.00 0.00 25 1023.0
20260831163504 85 118 3.0 8.0 0.00 0.00 0.00 25 1023.0
20260831163003 85 125 4.0 7.0 0.00 0.00 0.00 25 1022.9
20260831162503 84 136 0.0 3.0 0.00 0.00 0.00 25 1022.9
20260831162004 84 153 3.0 7.0 0.00 0.00 0.00 25 1023.0
20260831161503 85 133 3.0 5.0 0.00 0.00 0.00 25 1022.9
20260831160004 84 88 1.0 5.0 0.00 0.00 0.00 25 1022.8
20260831155503 84 124 1.0 2.0 0.00 0.00 0.00 25 1022.8
20260831155004 84 123 2.0 3.0 0.00 0.00 0.00 25 1022.9
20260831154504 84 97 0.0 7.0 0.00 0.00 0.00 26 1022.8
20260831154004 83 78 0.0 3.0 0.00 0.00 0.00 26 1022.8
20260831153504 82 145 0.0 2.0 0.00 0.00 0.00 27 1022.7
20260831153003 82 146 1.0 3.0 0.00 0.00 0.00 27 1022.8
20260831152503 81 163 1.0 3.0 0.00 0.00 0.00 28 1022.7
20260831152003 81 162 2.0 3.0 0.00 0.00 0.00 28 1022.6
20260831151504 80 216 0.0 0.0 0.00 0.00 0.00 28 1022.6
20260831151004 80 228 0.0 2.0 0.00 0.00 0.00 29 1022.6
20260831150504 79 234 0.0 0.0 0.00 0.00 0.00 29 1022.4
20260831145504 78 209 1.0 3.0 0.00 0.00 0.00 30 1022.5
20260831145004 77 215 1.0 3.0 0.00 0.00 0.00 31 1022.4
20260831144504 77 219 1.0 3.0 0.00 0.00 0.00 32 1022.4
20260831144004 76 235 1.0 3.0 0.00 0.00 0.00 32 1022.3
20260831143504 75 233 0.0 3.0 0.00 0.00 0.00 33 1022.3
20260831143003 74 233 0.0 0.0 0.00 0.00 0.00 33 1022.3
20260831142503 73 232 0.0 0.0 0.00 0.00 0.00 34 1022.3
20260831142004 72 232 0.0 3.0 0.00 0.00 0.00 34 1022.2
20260831141503 72 244 1.0 3.0 0.00 0.00 0.00 34 1022.2
20260831141004 71 241 1.0 3.0 0.00 0.00 0.00 34 1022.2
20260831140503 71 238 1.0 3.0 0.00 0.00 0.00 35 1021.9
20260831140003 70 242 0.0 1.0 0.00 0.00 0.00 35 1021.9
20260831135504 70 231 0.0 3.0 0.00 0.00 0.00 36 1021.8
20260831135005 69 236 1.0 3.0 0.00 0.00 0.00 36 1021.8
20260831134504 68 242 1.0 3.0 0.00 0.00 0.00 37 1021.7
20260831134003 67 240 0.0 5.0 0.00 0.00 0.00 37 1021.6
20260831133503 67 228 1.0 5.0 0.00 0.00 0.00 37 1021.5
20260831133004 66 247 2.0 3.0 0.00 0.00 0.00 37 1021.4
20260831132504 66 249 1.0 3.0 0.00 0.00 0.00 37 1021.3
20260831131503 67 244 3.0 5.0 0.00 0.00 0.00 36 1021.3
20260831131004 67 239 1.0 5.0 0.00 0.00 0.00 36 1021.3
20260831130003 67 246 1.0 3.0 0.00 0.00 0.00 36 1021.3
20260831125503 67 240 2.0 3.0 0.00 0.00 0.00 35 1021.3
20260831125003 68 255 2.0 3.0 0.00 0.00 0.00 36 1021.2
20260831124503 68 241 1.0 3.0 0.00 0.00 0.00 35 1021.2
20260831124005 68 245 2.0 5.0 0.00 0.00 0.00 35 1021.2
20260831123503 68 223 0.0 1.0 0.00 0.00 0.00 36 1021.1
20260831123004 68 222 0.0 2.0 0.00 0.00 0.00 36 1021.3
20260831122003 67 227 3.0 5.0 0.00 0.00 0.00 36 1021.1
20260831121504 67 233 2.0 7.0 0.00 0.00 0.00 36 1021.2
20260831121003 66 247 3.0 3.0 0.00 0.00 0.00 37 1021.1
20260831120503 66 242 0.0 2.0 0.00 0.00 0.00 38 1021.0
20260831120004 66 227 0.0 0.0 0.00 0.00 0.00 38 1021.0
20260831115503 66 227 0.0 0.0 0.00 0.00 0.00 39 1020.9
20260831115004 65 225 0.0 0.0 0.00 0.00 0.00 40 1020.9
20260831114504 65 219 0.0 0.0 0.00 0.00 0.00 40 1020.9
20260831114004 66 219 0.0 0.0 0.00 0.00 0.00 40 1020.8
20260831113504 66 219 0.0 0.0 0.00 0.00 0.00 40 1020.8
20260831113003 66 219 0.0 0.0 0.00 0.00 0.00 40 1021.1
20260831112504 66 219 0.0 0.0 0.00 0.00 0.00 40 1021.0
20260831112004 66 219 0.0 0.0 0.00 0.00 0.00 41 1021.0
20260831111503 66 219 0.0 0.0 0.00 0.00 0.00 42 1021.0
20260831111004 65 219 0.0 0.0 0.00 0.00 0.00 43 1021.0
20260831110004 66 219 0.0 0.0 0.00 0.00 0.00 43 1021.0
20260831105504 66 219 0.0 0.0 0.00 0.00 0.00 43 1021.0
20260831105004 66 219 0.0 0.0 0.00 0.00 0.00 43 1021.0
20260831104504 66 213 0.0 0.0 0.00 0.00 0.00 42 1021.0
20260831103504 66 205 0.0 0.0 0.00 0.00 0.00 44 1021.0
20260831103004 66 203 0.0 0.0 0.00 0.00 0.00 44 1021.0
20260831102503 66 195 0.0 0.0 0.00 0.00 0.00 43 1020.9
20260831102004 67 194 0.0 0.0 0.00 0.00 0.00 43 1020.8
20260831101503 67 194 0.0 0.0 0.00 0.00 0.00 42 1020.8
20260831101003 67 194 0.0 0.0 0.00 0.00 0.00 42 1020.8
20260831100003 67 194 0.0 1.0 0.00 0.00 0.00 43 1020.9
20260831095504 67 192 0.0 0.0 0.00 0.00 0.00 43 1020.9
20260831095003 67 192 0.0 0.0 0.00 0.00 0.00 43 1021.0
20260831094503 68 192 0.0 0.0 0.00 0.00 0.00 42 1020.9
20260831094004 69 186 0.0 0.0 0.00 0.00 0.00 40 1020.9
20260831093503 70 186 0.0 0.0 0.00 0.00 0.00 40 1020.9
20260831093004 70 186 0.0 0.0 0.00 0.00 0.00 40 1020.8
20260831092004 69 186 0.0 1.0 0.00 0.00 0.00 42 1020.8
20260831091504 68 182 0.0 0.0 0.00 0.00 0.00 43 1020.8
20260831091004 68 182 0.0 0.0 0.00 0.00 0.00 42 1020.8
20260831090503 68 178 0.0 0.0 0.00 0.00 0.00 42 1020.8
20260831090004 69 178 0.0 0.0 0.00 0.00 0.00 41 1020.8